logo tempoitalia

Diretta Meteo Tracy, Stati Uniti (USA)lunedì 31 agosto ore 01:35

Mappa
Sereno 24 °C Sereno 24 Ore: T.min 19 T.max 34
Ponente Sud/Sud-Ovest Km/h 18.5 Punto di rugiada: 23 °C Umidità: 94% Visibilità: 10 Km
Il sole sorge alle: 06:44 Il sole tramonta alle: 20:00
31 Agosto 2026 01:35 tempo osservato: Sereno Sereno 24 94 1007 vento: Nord S/SO 18.5
31 Agosto 2026 01:15 tempo osservato: Sereno Sereno 24 94 1007 vento: Nord S/SO 18.5
31 Agosto 2026 00:55 tempo osservato: Sereno Sereno 25 88 1007 vento: Nord S/SO 16.7
31 Agosto 2026 00:45 tempo osservato: Sereno Sereno 25 88 1007 vento: Nord S/SO 16.7
31 Agosto 2026 00:20 tempo osservato: Sereno Sereno 25 88 1007 vento: Nord S/SO 18.5
31 Agosto 2026 00:00 tempo osservato: Sereno Sereno 25 88 1007 vento: Nord S/SO 18.5
30 Agosto 2026 23:35 tempo osservato: Sereno Sereno 26 83 1007 vento: Nord S/SO 16.7
30 Agosto 2026 23:15 tempo osservato: Sereno Sereno 26 83 1007 vento: Nord S/SO 18.5
30 Agosto 2026 22:55 tempo osservato: Sereno Sereno 26 83 1007 vento: Nord S/SO 16.7
30 Agosto 2026 22:40 tempo osservato: Sereno Sereno 26 83 1007 vento: Nord S/SO 20.3
30 Agosto 2026 22:15 tempo osservato: Sereno Sereno 26 83 1007 vento: Nord S/SO 22.2
30 Agosto 2026 21:55 tempo osservato: Sereno Sereno 26 83 1006 vento: Nord S 20.3
30 Agosto 2026 21:35 tempo osservato: Sereno Sereno 26 83 1006 vento: Nord S 20.3
30 Agosto 2026 21:25 tempo osservato: Sereno Sereno 27 78 1006 vento: Nord S/SO 22.2
30 Agosto 2026 21:00 tempo osservato: Sereno Sereno 27 78 1006 vento: Nord S 20.3
30 Agosto 2026 20:35 tempo osservato: Sereno Sereno 27 78 1006 vento: Nord S 20.3
30 Agosto 2026 20:15 tempo osservato: Sereno Sereno 28 74 1006 vento: Nord S 16.7
30 Agosto 2026 19:55 tempo osservato: Sereno Sereno 28 74 1006 vento: Nord S 16.7
30 Agosto 2026 19:40 tempo osservato: Sereno Sereno 29 74 1006 vento: Nord S 16.7
30 Agosto 2026 19:15 tempo osservato: Sereno Sereno 30 70 1006 vento: Nord S 20.3
30 Agosto 2026 18:55 tempo osservato: Sereno Sereno 31 66 1006 vento: Nord S 20.3
30 Agosto 2026 18:35 tempo osservato: Sereno Sereno 32 62 1006 vento: Nord S 18.5
30 Agosto 2026 18:15 tempo osservato: Sereno Sereno 33 62 1006 vento: Nord S 20.3
30 Agosto 2026 18:00 tempo osservato: Sereno Sereno 33 62 1006 vento: Nord S 13
30 Agosto 2026 17:35 tempo osservato: Sereno Sereno 34 52 1006 vento: Nord S 16.7
30 Agosto 2026 17:15 tempo osservato: Sereno Sereno 34 52 1005 vento: Nord S 18.5
30 Agosto 2026 16:55 tempo osservato: Sereno Sereno 34 52 1005 vento: Nord S 16.7
30 Agosto 2026 16:45 tempo osservato: Sereno Sereno 34 52 1005 vento: Nord S 16.7
30 Agosto 2026 16:20 tempo osservato: Sereno Sereno 34 52 1006 vento: Nord S/SE 14.8
30 Agosto 2026 15:55 tempo osservato: Sereno Sereno 34 52 1006 vento: Nord SE 11.1
30 Agosto 2026 15:35 tempo osservato: Foschia Foschia 34 52 1006 vento: Nord S/SE 11.1
30 Agosto 2026 15:15 tempo osservato: Sereno Sereno 34 52 1006 vento: Nord SE 18.5
30 Agosto 2026 15:05 tempo osservato: Sereno Sereno 33 55 1006 vento: Nord SE 16.7
30 Agosto 2026 14:40 tempo osservato: Sereno Sereno 34 52 1006 vento: Nord S/SE 11.1
30 Agosto 2026 14:15 tempo osservato: Sereno Sereno 33 52 1006 vento: Nord E/SE 14.8
30 Agosto 2026 13:55 tempo osservato: Sereno Sereno 33 55 1006 vento: Nord E/SE 16.7
30 Agosto 2026 13:45 tempo osservato: Sereno Sereno 32 55 1006 vento: Nord SE 14.8
30 Agosto 2026 13:20 tempo osservato: Sereno Sereno 31 66 1007 vento: Nord SE 14.8
30 Agosto 2026 12:55 tempo osservato: Sereno Sereno 30 70 1007 vento: Nord E/SE 16.7
30 Agosto 2026 12:35 tempo osservato: Sereno Sereno 29 70 1007 vento: Nord SE 16.7
30 Agosto 2026 12:15 tempo osservato: Sereno Sereno 28 74 1007 vento: Nord E/NE 13
30 Agosto 2026 11:55 tempo osservato: Sereno Sereno 27 78 1008 vento: Nord N 11.1
30 Agosto 2026 11:45 tempo osservato: Poco Nuvoloso Poco Nuvoloso 27 78 1008 vento: Nord E 16.7
30 Agosto 2026 11:15 tempo osservato: Sereno Sereno 25 88 1008 vento: Nord N 9.3
30 Agosto 2026 10:55 tempo osservato: Poco Nuvoloso Poco Nuvoloso 24 94 1008 vento: Nord E 9.3
30 Agosto 2026 10:35 tempo osservato: Molto Nuvoloso Molto Nuvoloso 23 100 1008 vento: Nord NE 9.3
30 Agosto 2026 10:15 tempo osservato: Molto Nuvoloso Molto Nuvoloso 22 100 1008 vento: Nord NE 7.4
30 Agosto 2026 10:05 tempo osservato: Foschia Foschia 22 100 1008 vento: Nord N/NE 9.3
30 Agosto 2026 09:40 tempo osservato: Molto Nuvoloso Molto Nuvoloso 21 100 1008 vento: Nord N 0
30 Agosto 2026 09:20 tempo osservato: Foschia Foschia 21 100 1007 vento: Nord E/SE 9.3
30 Agosto 2026 08:55 tempo osservato: Nebbia Nebbia 20 100 1007 vento: Nord N 0
30 Agosto 2026 08:35 tempo osservato: Nebbia Nebbia 20 100 1007 vento: Nord E/SE 7.4
30 Agosto 2026 08:15 tempo osservato: Nebbia Nebbia 19 100 1007 vento: Nord N 0
30 Agosto 2026 07:55 tempo osservato: Nebbia Nebbia 20 100 1007 vento: Nord N 7.4
30 Agosto 2026 07:45 tempo osservato: Nebbia Nebbia 19 100 1007 vento: Nord N 0
30 Agosto 2026 07:20 tempo osservato: Foschia Foschia 19 100 1008 vento: Nord N 0
30 Agosto 2026 06:55 tempo osservato: Foschia Foschia 19 100 1008 vento: Nord N 0
30 Agosto 2026 06:35 tempo osservato: Foschia Foschia 19 100 1007 vento: Nord E 7.4
30 Agosto 2026 06:15 tempo osservato: Foschia Foschia 19 100 1007 vento: Nord N 0
30 Agosto 2026 05:55 tempo osservato: Foschia Foschia 19 100 1008 vento: Nord N 0
30 Agosto 2026 05:35 tempo osservato: Foschia Foschia 19 100 1007 vento: Nord E/SE 7.4
30 Agosto 2026 05:15 tempo osservato: Foschia Foschia 19 100 1008 vento: Nord N 0
30 Agosto 2026 05:05 tempo osservato: Foschia Foschia 19 100 1008 vento: Nord N 0
30 Agosto 2026 04:45 tempo osservato: Foschia Foschia 19 100 1008 vento: Nord N 0
30 Agosto 2026 04:15 tempo osservato: Foschia Foschia 19 100 1008 vento: Nord N 0
30 Agosto 2026 03:55 tempo osservato: Foschia Foschia 20 100 1008 vento: Nord N 0
30 Agosto 2026 03:35 tempo osservato: Foschia Foschia 20 100 1007 vento: Nord N 0
30 Agosto 2026 03:15 tempo osservato: Foschia Foschia 19 100 1007 vento: Nord N 0
30 Agosto 2026 02:55 tempo osservato: Foschia Foschia 19 100 1007 vento: Nord N 5.5
30 Agosto 2026 02:35 tempo osservato: Foschia Foschia 19 100 1008 vento: Nord N 0
30 Agosto 2026 02:15 tempo osservato: Foschia Foschia 20 100 1008 vento: Nord N 0
30 Agosto 2026 01:55 tempo osservato: Foschia Foschia 20 100 1008 vento: Nord N 0
30 Agosto 2026 01:45 tempo osservato: Foschia Foschia 20 100 1008 vento: Nord N 5.5